This is the latest recevied weather packets stored in our database for station/object AE5HO. If no packets are shown the sender has not sent any weather packets the latest 10 day(s).
| Time | Temp. | Humidity | Pressure | Rain* | Wind** | Luminosity | Snow |
|---|---|---|---|---|---|---|---|
| 1787409569 | 32.22° C | 57% | 1017.6 hPa | 0 mm | - | 87 W/m² | - |
| 1787409265 | 31.67° C | 58% | 1017.4 hPa | 0 mm | - | 78 W/m² | - |
| 1787408961 | 31.67° C | 59% | 1017.4 hPa | 0 mm | - | 67 W/m² | - |
| 1787408656 | 31.11° C | 60% | 1017.3 hPa | 0 mm | - | 61 W/m² | - |
| 1787408356 | 31.11° C | 61% | 1017.3 hPa | 0 mm | - | 59 W/m² | - |
| 1787408052 | 31.11° C | 60% | 1017.2 hPa | 0 mm | - | 57 W/m² | - |
| 1787407747 | 31.11° C | 60% | 1017.3 hPa | 0 mm | - | 59 W/m² | - |
| 1787407443 | 30.56° C | 59% | 1017.3 hPa | 0 mm | - | 56 W/m² | - |
| 1787407137 | 30.56° C | 60% | 1017.4 hPa | 0 mm | - | 57 W/m² | - |
| 1787406834 | 30.56° C | 60% | 1017.3 hPa | 0 mm | - | 67 W/m² | - |
| 1787406534 | 30.56° C | 62% | 1017.3 hPa | 0 mm | - | 66 W/m² | - |
| 1787406230 | 30° C | 63% | 1017.2 hPa | 0 mm | - | 61 W/m² | - |
| 1787405926 | 30° C | 64% | 1017.2 hPa | 0 mm | - | 57 W/m² | - |
| 1787405623 | 29.44° C | 64% | 1017.1 hPa | 0 mm | - | 55 W/m² | - |
| 1787405322 | 29.44° C | 64% | 1017.3 hPa | 0 mm | - | 49 W/m² | - |
| 1787405018 | 28.89° C | 65% | 1016.9 hPa | 0 mm | - | 43 W/m² | - |
| 1787404714 | 28.89° C | 66% | 1017 hPa | 0 mm | - | 38 W/m² | - |
| 1787404413 | 28.89° C | 65% | 1017.1 hPa | 0 mm | - | 34 W/m² | - |
| 1787404109 | 28.33° C | 68% | 1017 hPa | 0 mm | - | 31 W/m² | - |
| 1787403810 | 27.78° C | 70% | 1016.9 hPa | 0 mm | - | 28 W/m² | - |
| 1787403509 | 27.22° C | 73% | 1017.1 hPa | 0 mm | - | 26 W/m² | - |
| 1787403205 | 26.67° C | 76% | 1017 hPa | 0 mm | - | 27 W/m² | - |
| 1787402901 | 26.11° C | 77% | 1016.7 hPa | 0 mm | - | 24 W/m² | - |
| 1787402596 | 26.11° C | 77% | 1016.8 hPa | 0 mm | - | 18 W/m² | - |
| 1787402295 | 26.11° C | 78% | 1016.8 hPa | 0 mm | - | 15 W/m² | - |
* Rain latest hour (hover to see other rain measurements)
** Current wind speed in m/s (hover to see current wind gust speed)